Regional Weather Roundup
Issued by NWS Portland, ME

Current Version | Previous Version | Text Only | Print | Product List | Glossary Off
Versions: 1 2 3 4 5 6 7 8 9 10 11 12 13 14 15 16 17 18 19 20 21 22 23 24 25 26 27 28 29 30 31 32 33 34 35 36 37 38 39 40 41 42 43 44 45 46 47 48 49 50
000 ASUS41 KGYX 242010 RWRGYX WEATHER ROUNDUP FOR MAINE AND NEW HAMPSHIRE NATIONAL WEATHER SERVICE GRAY ME 400 PM EDT THU JUL 24 2014 MEZ002-005-006-010-012-015-018-020-021-024-026-027-029-242100- MAINE CITY SKY/WX TMP DP RH WIND PRES REMARKS PORTLAND PTSUNNY 72 61 68 E9 29.82S SANFORD PTSUNNY 73 61 64 E7 29.82S BAR HARBOR SUNNY 68 63 83 E5 29.80F WISCASSET CLOUDY 76 58 53 CALM 29.82S ROCKLAND MOSUNNY 68 57 68 E5 29.80F FRYEBURG PTSUNNY 75 55 49 NW7 29.84S LEWISTONAUBURN MOSUNNY 75 55 50 NW12 29.83S AUGUSTA PTSUNNY 75 56 51 N9 29.83S WATERVILLE CLOUDY 75 57 53 NW9 29.78S BANGOR PTSUNNY 77 55 46 NW13 29.81S GREENVILLE N/A 69 49 48 NW12 29.84S MILLINOCKET MOSUNNY 74 50 42 W6 29.83S HOULTON SUNNY 73 47 39 NW8 29.79F PRESQUE ISLE SUNNY 70 45 40 NW6 29.82F FRENCHVILLE SUNNY 68 45 43 NW5 29.81F CARIBOU SUNNY 69 47 45 W7 29.81F $$ NHZ002-005-008-009-011-012-014-242100- NEW HAMPSHIRE CITY SKY/WX TMP DP RH WIND PRES REMARKS PORTSMOUTH CLOUDY 71 61 70 SE9 29.83R ROCHESTER CLOUDY 76 63 64 CALM 29.82S NASHUA PTSUNNY 80 58 46 N12G17 29.83F MANCHESTER PTSUNNY 81 55 40 NW10 29.82R CONCORD MOSUNNY 79 55 43 NW12 29.84R LACONIA SUNNY 77 54 44 W12 29.83S PLYMOUTH FAIR 75 53 45 W9 29.86S BERLIN CLOUDY 70 51 51 VRB6 29.89F WHITEFIELD PTSUNNY 73 51 46 NW9 29.89F JAFFREY MOSUNNY 75 53 46 VRB7 29.88S LEBANON PTSUNNY 76 50 40 NW13G18 29.87S MT WASHINGTON FOG 46 46 100 W22G29 N/A VSB 1/8 $$ VTZ005-007-008-242100- VERMONT CITY SKY/WX TMP DP RH WIND PRES REMARKS ST JOHNSBURY N/A 70 50 49 MISG 29.88F MONTPELIER SUNNY 68 50 52 N12 29.96F BURLINGTON MOSUNNY 72 50 45 NE10G16 29.93F $$ MAZ007-012-024-CTZ003-RIZ002-NYZ038-NYZ072-242100- SOUTHERN NEW ENGLAND AND NY CITY SKY/WX TMP DP RH WIND PRES REMARKS BOSTON CLOUDY 69 62 78 E8 29.84S WORCESTER CLOUDY 76 58 53 N9 29.86S NANTUCKET CLOUDY 71 64 78 N14 29.81S PROVIDENCE CLOUDY 77 65 66 NE8 29.83S HARTFORD PTSUNNY 82 58 43 N8 29.82F ALBANY PTSUNNY 77 57 50 NE6 29.88F $$ ANZ081-ANZ082-ANZ150-NHZ014-MEZ023>029-242100- COASTAL MARINE OBSERVATIONS STATION/POSITION TIME TEMP WIND PRES WAVE AIR SEA DIR/SP/G HT/PER (UTC) (F) (DEG/KT/KT) (MB) (FT/S) MOUNT DESERT ROC 2000 59 1009.2F MATINICUS ROCK 2000 100/ 3/ 4 1009.2F PORTLAND WX BUOY 2000 66 65 130/ 8/ 10 1009.8F 1/ 8 WELLS 2000 68 62 180/ 6/ 8 1009.4S ISLE OF SHOALS 2000 64 120/ 7/ 7 1009.7R JEFFREYS LEDGE 2000 65 N/A 3/ 5 CASHES LEDGE BUO 2000 63 66 VRB 12/ 14 1009.2F 3/ 4 $$ .............KEY.............. WCI - WIND CHILL TC - TEMPERATURE IN CELSIUS VSB - VISIBILITY IN MILES HX - HEAT INDEX FAIR- INDICATES FEW OR NO CLOUDS BELOW 12,000 FT, WITH NO SIGNIFICANT WEATHER AND/OR OBSTRUCTIONS TO VISIBILITY.

USA.gov is the U.S. government's official web portal to all federal, state and local government web resources and services.